Location: Eastlake (historical)
(39.0077°N, 122.6678°W)
Time: 08:57:55
(UTC+00:00)

Cosmos 1184 Rocket - Pass Details

Date: 25 November 2020
Orbit: 404 x 418 km, 81.2° (Epoch: 25 January)

Event Time Altitude Azimuth Distance (km) Brightness Sun altitude
Rises 13:25:17 0° 189° (S) 2,357 6.6 -19.1°
Reaches altitude 10° 13:27:19 10° 190° (S) 1,499 5.6 -18.7°
Maximum altitude 13:30:35 84° 279° (W) 429 2.6 -18.1°
Drops below altitude 10° 13:33:53 10° 8° (N) 1,513 5.5 -17.5°
Sets 13:35:56 0° 9° (N) 2,382 6.5 -17.1°
